• Join FlightAware (Why Join?)
  • Login
  • US Flag GB Flag 
18:23 EST


 

Airport Tracker/Info


-or-


 

Live Flight TrackerFlight Track Log ✈ AWE1693 ✈ 27-Jul-2013 ✈ KCLT - TKPK / SKB

Flight Track Log - Related Links

Times and Time Zones

All times are in EDT time to prevent confusion due to time zone crossing. See the AWE1693 flight status page for this flight to view local times or setup timezone preferences in your user account.

Time Position Orientation Groundspeed Altitude Reporting Facility
EDT Latitude Longitude Course Direction KTS MPH feet Rate Location/Type
13:39 35.2394 -80.9567 215° Southwest 167 192 2,200  Level Atlanta Center
13:40 35.2678 -81.0117 302° West 210 242 3,900 2,301 Climbing Atlanta Center
13:42 34.8679 -80.5001 180° South  Level Estimated
13:42 35.2072 -81.0114 180° South 203 234 7,300  Level Atlanta Center
13:43 34.7522 -80.3513 165° South  Level Estimated
13:43 35.1456 -80.9653 149° Southeast 200 230 9,800  Level Atlanta Center
13:44 34.6364 -80.2029 175° South  Level Estimated
13:44 35.0681 -80.9453 168° South 252 290 11,500  Level Atlanta Center
13:45 34.4979 -80.3188 215° Southwest  Level FlightAware Approximate
13:46 34.8767 -80.9214 174° South 331 381 16,300  Level Jacksonville Center
13:47 34.7783 -80.9083 174° South 353 406 17,800 1,700 Climbing Jacksonville Center
13:48 34.6758 -80.8956 174° South 364 419 19,700 1,600 Climbing Jacksonville Center
13:49 34.5694 -80.8831 174° South 385 443 21,000 1,350 Climbing Jacksonville Center
13:50 34.4525 -80.8731 176° South 411 473 22,400 1,450 Climbing Jacksonville Center
13:51 34.3378 -80.8858 185° South 411 473 23,900 1,450 Climbing Jacksonville Center
13:52 34.2233 -80.8961 184° South 416 479 25,300 1,150 Climbing Jacksonville Center
13:53 34.1064 -80.8936 179° South 421 484 26,200 950 Climbing Jacksonville Center
13:54 33.9872 -80.8789 174° South 431 496 27,200 1,050 Climbing Jacksonville Center
13:55 33.8697 -80.8342 162° South 431 496 28,300 950 Climbing Jacksonville Center
13:56 33.7558 -80.7642 153° Southeast 443 510 29,100 850 Climbing Jacksonville Center
13:57 33.6481 -80.6794 147° Southeast 458 527 30,000 1,100 Climbing Jacksonville Center
13:58 33.5339 -80.6003 150° Southeast 465 535 31,300 1,400 Climbing Jacksonville Center
13:59 33.4258 -80.5158 147° Southeast 465 535 32,800 850 Climbing Jacksonville Center
14:00 33.3239 -80.4217 142° Southeast 465 535 33,000 400 Climbing Jacksonville Center
14:01 33.2525 -80.2919 123° Southeast 449 517 33,600 800 Climbing Jacksonville Center
14:02 33.2033 -80.1469 112° Southeast 459 528 34,600 700 Climbing Jacksonville Center
14:03 33.1419 -80.0050 117° Southeast 471 542 35,000 200 Climbing Jacksonville Center
14:04 33.0908 -79.8803 116° Southeast 477 549 35,000  Level Jacksonville Center
14:05 33.0353 -79.7408 115° Southeast 472 543 35,000  Level Jacksonville Center
14:06 32.9775 -79.5992 116° Southeast 472 543 35,000  Level Jacksonville Center
14:07 32.9217 -79.4603 116° Southeast 467 537 35,000  Level Jacksonville Center
14:08 32.8656 -79.3214 116° Southeast 467 537 35,000  Level Jacksonville Center
14:09 32.8094 -79.1803 115° Southeast 462 532 35,000  Level Jacksonville Center
14:10 32.7531 -79.0419 116° Southeast 462 532 35,000  Level Jacksonville Center
14:11 32.6967 -78.9061 116° Southeast 467 537 35,000 250 Level Jacksonville Center
14:12 32.6400 -78.7656 116° Southeast 467 537 35,500 500 Climbing Jacksonville Center
14:13 32.5833 -78.6300 116° Southeast 461 531 36,000 250 Climbing Jacksonville Center
14:14 32.5242 -78.4925 117° Southeast 461 531 36,000 -50 Level Jacksonville Center
14:15 32.4692 -78.3547 115° Southeast 461 531 35,900  Descending Jacksonville Center
14:16 32.4122 -78.2172 116° Southeast 461 531 36,000 50 Climbing Jacksonville Center
14:17 32.3569 -78.0825 116° Southeast 461 531 36,000  Level Jacksonville Center
14:18 32.3017 -77.9478 116° Southeast 461 531 36,000  Level Jacksonville Center
14:19 32.2261 -77.8317 128° Southeast 454 522 36,000 300 Level Jacksonville Center
14:20 32.1303 -77.7339 139° Southeast 454 522 36,600 500 Climbing Jacksonville Center
14:21 32.0306 -77.6439 143° Southeast 447 514 37,000 200 Climbing Jacksonville Center
14:22 31.9347 -77.5467 139° Southeast 452 520 37,000  Level Jacksonville Center
14:23 31.8347 -77.4522 141° Southeast 452 520 37,000  Level Jacksonville Center
14:24 31.7367 -77.3603 141° Southeast 452 520 37,000  Level Jacksonville Center
14:25 31.6386 -77.2636 140° Southeast 463 533 37,000 -50 Level Jacksonville Center
14:26 31.5294 -77.1581 140° Southeast 463 533 36,900  Descending Jacksonville Center
14:27 31.4403 -77.0783 143° Southeast 463 533 37,000 50 Climbing Jacksonville Center
14:28 31.3269 -76.9714 141° Southeast 469 540 37,000  Level Jacksonville Center
14:29 31.3500 -77.0000 140° Southeast 462 532 37,000  Level New York Oceanic (ODAPS)
14:35 30.6556 -76.3331 141° Southeast 462 532 37,000  Level FlightAware Transoceanic
14:36 30.5561 -76.2386 141° Southeast 462 532 37,000  Level FlightAware Transoceanic
14:37 30.4565 -76.1443 141° Southeast 462 532 37,000  Level FlightAware Transoceanic
14:38 30.3569 -76.0502 141° Southeast 462 532 37,000  Level FlightAware Transoceanic
14:39 30.2572 -75.9563 141° Southeast 462 532 37,000  Level FlightAware Transoceanic
14:40 30.1575 -75.8625 141° Southeast 462 532 37,000  Level FlightAware Transoceanic
14:41 30.0577 -75.7690 141° Southeast 462 532 37,000  Level FlightAware Transoceanic
14:42 29.9578 -75.6757 141° Southeast 462 532 37,000  Level FlightAware Transoceanic
14:43 29.8578 -75.5825 141° Southeast 462 532 37,000  Level FlightAware Transoceanic
14:44 29.7578 -75.4895 141° Southeast 462 532 37,000  Level FlightAware Transoceanic
14:45 29.6577 -75.3967 141° Southeast 462 532 37,000  Level FlightAware Transoceanic
14:46 29.5576 -75.3041 141° Southeast 462 532 37,000  Level FlightAware Transoceanic
14:47 29.4574 -75.2117 141° Southeast 462 532 37,000  Level FlightAware Transoceanic
14:48 29.3571 -75.1195 141° Southeast 462 532 37,000  Level FlightAware Transoceanic
14:49 29.2568 -75.0274 141° Southeast 462 532 37,000  Level FlightAware Transoceanic
14:50 29.1564 -74.9356 141° Southeast 462 532 37,000  Level FlightAware Transoceanic
14:51 29.0559 -74.8439 141° Southeast 462 532 37,000  Level FlightAware Transoceanic
14:52 28.9554 -74.7523 141° Southeast 462 532 37,000  Level FlightAware Transoceanic
14:53 28.8548 -74.6610 142° Southeast 462 532 37,000  Level FlightAware Transoceanic
14:54 28.7541 -74.5698 142° Southeast 462 532 37,000  Level FlightAware Transoceanic
14:55 28.6534 -74.4789 142° Southeast 462 532 37,000  Level FlightAware Transoceanic
14:56 28.5527 -74.3881 142° Southeast 462 532 37,000  Level FlightAware Transoceanic
14:57 28.4518 -74.2974 142° Southeast 462 532 37,000  Level FlightAware Transoceanic
14:58 28.3510 -74.2070 142° Southeast 462 532 37,000  Level FlightAware Transoceanic
14:59 28.2500 -74.1167 149° Southeast 462 532 37,000  Level FlightAware Transoceanic
15:00 28.1385 -74.0416 149° Southeast 462 532 37,000  Level FlightAware Transoceanic
15:01 28.0269 -73.9667 149° Southeast 462 532 37,000  Level FlightAware Transoceanic
15:02 27.9153 -73.8920 149° Southeast 462 532 37,000  Level FlightAware Transoceanic
15:02 28.2500 -74.1167 149° Southeast 466 536 37,000  Level New York Oceanic (ODAPS)
15:03 27.8036 -73.8174 149° Southeast 462 532 37,000  Level FlightAware Transoceanic
15:04 27.6919 -73.7430 149° Southeast 462 532 37,000  Level FlightAware Transoceanic
15:05 27.5802 -73.6687 150° Southeast 462 532 37,000  Level FlightAware Transoceanic
15:06 27.4684 -73.5945 150° Southeast 462 532 37,000  Level FlightAware Transoceanic
15:07 27.3566 -73.5206 150° Southeast 462 532 37,000  Level FlightAware Transoceanic
15:08 27.2448 -73.4467 150° Southeast 462 532 37,000  Level FlightAware Transoceanic
15:09 27.1329 -73.3730 150° Southeast 466 536 37,000  Level FlightAware Transoceanic
15:10 27.0210 -73.2995 150° Southeast 466 536 37,000  Level FlightAware Transoceanic
15:11 26.9090 -73.2261 150° Southeast 466 536 37,000  Level FlightAware Transoceanic
15:12 26.7970 -73.1529 150° Southeast 466 536 37,000  Level FlightAware Transoceanic
15:13 26.6849 -73.0798 150° Southeast 466 536 37,000  Level FlightAware Transoceanic
15:14 26.5729 -73.0068 150° Southeast 466 536 37,000  Level FlightAware Transoceanic
15:15 26.4608 -72.9340 150° Southeast 466 536 37,000  Level FlightAware Transoceanic
15:16 26.3486 -72.8613 150° Southeast 466 536 37,000  Level FlightAware Transoceanic
15:17 26.2364 -72.7888 150° Southeast 466 536 37,000  Level FlightAware Transoceanic
15:18 26.1242 -72.7164 150° Southeast 466 536 37,000  Level FlightAware Transoceanic
15:19 26.0119 -72.6442 150° Southeast 466 536 37,000  Level FlightAware Transoceanic
15:20 25.8996 -72.5721 150° Southeast 466 536 37,000  Level FlightAware Transoceanic
15:21 25.7873 -72.5001 150° Southeast 466 536 37,000  Level FlightAware Transoceanic
15:22 25.6749 -72.4282 150° Southeast 466 536 37,000  Level FlightAware Transoceanic
15:23 25.5625 -72.3565 150° Southeast 466 536 37,000  Level FlightAware Transoceanic
15:24 25.4501 -72.2850 150° Southeast 466 536 37,000  Level FlightAware Transoceanic
15:25 25.3376 -72.2135 150° Southeast 466 536 37,000  Level FlightAware Transoceanic
15:26 25.2251 -72.1422 150° Southeast 466 536 37,000  Level FlightAware Transoceanic
15:27 25.1126 -72.0710 150° Southeast 466 536 37,000  Level FlightAware Transoceanic
15:28 25.0000 -72.0000 139° Southeast 466 536 37,000  Level FlightAware Transoceanic
15:28 24.9414 -71.9644 139° Southeast 451 519 37,000  Level Miami Center
15:29 24.8464 -71.8722 139° Southeast 451 519 37,000  Level Miami Center
15:30 24.7511 -71.7753 137° Southeast 457 526 37,000  Level Miami Center
15:31 24.6522 -71.6903 142° Southeast 462 532 37,000  Level Miami Center
15:32 24.5547 -71.5894 137° Southeast 462 532 37,000  Level Miami Center
15:33 24.4536 -71.5094 144° Southeast 463 533 37,000  Level Miami Center
15:34 24.3558 -71.4019 135° Southeast 470 541 37,000  Level Miami Center
15:35 24.2606 -71.3128 140° Southeast 471 542 37,000  Level Miami Center
15:36 24.1611 -71.2194 139° Southeast 473 544 37,000  Level Miami Center
15:37 24.0614 -71.1214 138° Southeast 473 544 37,000  Level Miami Center
15:38 23.9633 -71.0214 137° Southeast 475 547 37,000  Level Miami Center
15:39 23.8636 -70.9242 138° Southeast 475 547 37,000  Level Miami Center
15:40 23.7664 -70.8447 143° Southeast 470 541 37,000  Level Miami Center
15:41 23.6636 -70.7294 134° Southeast 476 548 37,000  Level Miami Center
15:42 23.5661 -70.6436 141° Southeast 476 548 37,000  Level Miami Center
15:43 23.4664 -70.5536 140° Southeast 476 548 37,000  Level Miami Center
15:44 23.3575 -70.4436 137° Southeast 476 548 37,000  Level Miami Center
15:45 23.2597 -70.3536 140° Southeast 476 548 37,000  Level Miami Center
15:46 23.1619 -70.2639 140° Southeast 471 542 37,000  Level Miami Center
15:47 23.0594 -70.1633 138° Southeast 481 554 37,000  Level Miami Center
15:48 22.9639 -70.0803 141° Southeast 469 540 37,000  Level Miami Center
15:49 22.8681 -69.9886 139° Southeast 469 540 37,000  Level Miami Center
15:50 22.7678 -69.8950 139° Southeast 469 540 37,000  Level Miami Center
15:51 22.6719 -69.8058 139° Southeast 476 548 37,000  Level Miami Center
15:52 22.5694 -69.7103 139° Southeast 471 542 37,000  Level Miami Center
15:53 22.4733 -69.6189 139° Southeast 471 542 37,000  Level Miami Center
15:54 22.3753 -69.5303 140° Southeast 471 542 37,000  Level Miami Center
15:55 22.2811 -69.4414 139° Southeast 466 536 37,000  Level Miami Center
15:56 22.1786 -69.3489 140° Southeast 466 536 37,000  Level Miami Center
15:57 22.0850 -69.2647 140° Southeast 466 536 37,000  Level Miami Center
15:58 21.9906 -69.1739 138° Southeast 461 531 37,000  Level Miami Center
15:59 21.8944 -69.0858 140° Southeast 461 531 37,000  Level Miami Center
16:00 21.7942 -68.9958 140° Southeast 456 525 37,000  Level Miami Center
16:01 21.6978 -68.9078 140° Southeast 451 519 37,000  Level Miami Center
16:02 21.6017 -68.8200 140° Southeast 451 519 37,000  Level Miami Center
16:03 21.5031 -68.7303 140° Southeast 456 525 37,000  Level Miami Center
16:04 21.4108 -68.6425 138° Southeast 451 519 37,000  Level Miami Center
16:05 21.2939 -68.5583 146° Southeast 487 560 37,000  Level Miami Center
16:06 21.2183 -68.4675 132° Southeast 446 513 37,000  Level Miami Center
16:07 21.1178 -68.3806 141° Southeast 453 521 37,000  Level Miami Center
16:08 21.0256 -68.2956 139° Southeast 448 516 37,000  Level Miami Center
16:09 20.9436 -68.2075 135° Southeast 441 507 37,000  Level Miami Center
16:10 20.8369 -68.1258 144° Southeast 446 513 37,000  Level Miami Center
16:11 20.7486 -68.0342 136° Southeast 446 513 37,000  Level Miami Center
16:12 20.6858 -67.9186 120° Southeast 446 513 37,000  Level Miami Center
16:13 20.6269 -67.8033 119° Southeast 446 513 37,000  Level Miami Center
16:14 20.5661 -67.6858 119° Southeast 446 513 37,000  Level Miami Center
16:15 20.5050 -67.6061 129° Southeast 446 513 37,000  Level Miami Center
16:16 20.4167 -67.5000 132° Southeast 430 495 37,000  Level San Juan Center
16:17 20.3333 -67.4000 132° Southeast 430 495 37,000  Level San Juan Center
16:18 20.2500 -67.3000 132° Southeast 440 506 37,000  Level San Juan Center
16:19 20.1833 -67.1833 121° Southeast 430 495 37,000  Level San Juan Center
16:20 20.1000 -67.0667 127° Southeast 450 518 37,000  Level San Juan Center
16:21 20.0333 -66.9833 130° Southeast 440 506 37,000  Level San Juan Center
16:22 19.9500 -66.8500 124° Southeast 450 518 37,000  Level San Juan Center
16:23 19.8667 -66.7667 137° Southeast 450 518 37,000  Level San Juan Center
16:24 19.7833 -66.6500 127° Southeast 440 506 37,000  Level San Juan Center
16:25 19.7167 -66.5500 125° Southeast 440 506 37,000 -350 Level San Juan Center
16:26 19.6500 -66.4500 125° Southeast 430 495 36,300 -992 Descending San Juan Center
16:27 19.5667 -66.3500 131° Southeast 450 518 35,000 -893 Descending San Juan Center
16:28 19.4833 -66.2333 127° Southeast 450 518 34,500 -800 Descending San Juan Center
16:29 19.4000 -66.1333 131° Southeast 450 518 33,400 -1,190 Descending San Juan Center
16:30 19.3333 -66.0333 125° Southeast 460 529 32,100 -1,140 Descending San Juan Center
16:31 19.2500 -65.9333 131° Southeast 450 518 31,100 -500 Descending San Juan Center
16:32 19.1667 -65.8167 127° Southeast 470 541 31,100  Level San Juan Center
16:33 19.0833 -65.7167 131° Southeast 460 529 31,100  Level San Juan Center
16:34 19.0000 -65.6000 127° Southeast 470 541 31,100  Level San Juan Center
16:35 18.9167 -65.5000 131° Southeast 460 529 31,100  Level San Juan Center
16:36 18.8333 -65.3833 127° Southeast 460 529 31,100  Level San Juan Center
16:37 18.7667 -65.2833 125° Southeast 460 529 31,100  Level San Juan Center
16:38 18.6833 -65.1833 131° Southeast 460 529 31,100  Level San Juan Center
16:39 18.6000 -65.0833 131° Southeast 460 529 31,100  Level San Juan Center
16:40 18.5167 -64.9667 127° Southeast 470 541 31,100  Level San Juan Center
16:41 18.4333 -64.8667 131° Southeast 480 552 31,100  Level San Juan Center
16:42 18.3500 -64.7500 127° Southeast 460 529 31,100 -50 Level San Juan Center
16:43 18.2667 -64.6500 131° Southeast 440 506 31,000 -645 Descending San Juan Center
16:44 18.2000 -64.5500 125° Southeast 440 506 29,800 -1,190 Descending San Juan Center
16:45 18.1167 -64.4500 131° Southeast 440 506 28,600 -1,200 Descending San Juan Center
16:46 18.0333 -64.3500 131° Southeast 450 518 27,400 -1,140 Descending San Juan Center
16:47 17.9667 -64.2500 125° Southeast 460 529 26,300 -1,140 Descending San Juan Center
16:48 17.8833 -64.1500 131° Southeast 450 518 25,100 -600 Descending San Juan Center
16:49 17.8000 -64.0500 131° Southeast 460 529 25,100 -150 Level San Juan Center
16:50 17.7167 -63.9333 127° Southeast 450 518 24,800 -1,934 Descending San Juan Center
16:51 17.6333 -63.8333 131° Southeast 440 506 21,200 -3,322 Descending San Juan Center
16:52 17.5667 -63.7500 130° Southeast 420 483 18,100 -2,800 Descending San Juan Center
16:53 17.5000 -63.6500 125° Southeast 400 460 15,600 -2,479 Descending San Juan Center
16:54 17.4667 -63.5500 109° East 380 437 13,100 -2,331 Descending San Juan Center
16:55 17.4333 -63.4500 109° East 360 414 10,900 -1,459 Descending San Juan Center
16:57 17.4000 -63.2667 101° East 280 322 8,700 -1,260 Descending San Juan Center
16:58 17.3833 -63.2000 105° East 270 311 7,100 -1,350 Descending San Juan Center
16:59 17.3667 -63.1333 105° East 260 299 6,000 -1,100 Descending San Juan Center
17:02 17.3493 -62.9986 118° Southeast  Level FlightAware Approximate
17:09 17.3112 -62.7187 North  Level Estimated
17:10 17.3112 -62.7187 North  Level Estimated